Location: Gro�sch�nbrunn
(49.5760°N, 11.8868°E)
Time: 09:34:56
(UTC+00:00)

N. Korean satellite - Pass Details

Date: 01 December 2020
Orbit: 453 x 502 km, 97.2° (Epoch: 16 January)

Event Time Altitude Azimuth Distance (km) Brightness Sun altitude
Rises 05:40:51 0° 2° (N) 2,559 10.0 -10.4°
Reaches altitude 10° 05:43:08 10° 350° (N) 1,683 9.0 -10.1°
Maximum altitude 05:46:10 26° 293° (WNW) 1,013 7.6 -9.6°
Drops below altitude 10° 05:49:12 10° 236° (SW) 1,692 9.0 -9.2°
Sets 05:51:31 0° 223° (SW) 2,576 10.0 -8.8°
